#datetime,building,power
2022-05-13T00:00:00,ths,13.54
2022-05-13T00:01:00,ths,13.53
2022-05-13T00:02:00,ths,13.30
2022-05-13T00:03:00,ths,13.73
2022-05-13T00:04:00,ths,13.56
2022-05-13T00:05:00,ths,11.08
2022-05-13T00:06:00,ths,7.90
2022-05-13T00:07:00,ths,7.88
2022-05-13T00:08:00,ths,8.06
2022-05-13T00:09:00,ths,8.48
2022-05-13T00:10:00,ths,6.35
2022-05-13T00:11:00,ths,5.57
2022-05-13T00:12:00,ths,5.61
2022-05-13T00:13:00,ths,5.72
2022-05-13T00:14:00,ths,5.79
2022-05-13T00:15:00,ths,5.74
2022-05-13T00:16:00,ths,8.74
2022-05-13T00:17:00,ths,8.72
2022-05-13T00:18:00,ths,11.65
2022-05-13T00:19:00,ths,11.57
2022-05-13T00:20:00,ths,11.98
2022-05-13T00:21:00,ths,11.30
2022-05-13T00:22:00,ths,11.18
2022-05-13T00:23:00,ths,9.07
2022-05-13T00:24:00,ths,8.37
2022-05-13T00:25:00,ths,8.14
2022-05-13T00:26:00,ths,8.33
2022-05-13T00:27:00,ths,8.18
2022-05-13T00:28:00,ths,8.23
2022-05-13T00:29:00,ths,10.18
2022-05-13T00:30:00,ths,10.12
2022-05-13T00:31:00,ths,8.09
2022-05-13T00:32:00,ths,7.38
2022-05-13T00:33:00,ths,7.45
2022-05-13T00:34:00,ths,7.38
2022-05-13T00:35:00,ths,8.94
2022-05-13T00:36:00,ths,11.43
2022-05-13T00:37:00,ths,11.41
2022-05-13T00:38:00,ths,9.91
2022-05-13T00:39:00,ths,10.99
2022-05-13T00:40:00,ths,11.00
2022-05-13T00:41:00,ths,15.74
2022-05-13T00:42:00,ths,17.94
2022-05-13T00:43:00,ths,17.92
2022-05-13T00:44:00,ths,18.12
2022-05-13T00:45:00,ths,18.07
2022-05-13T00:46:00,ths,18.09
2022-05-13T00:47:00,ths,13.34
2022-05-13T00:48:00,ths,11.25
2022-05-13T00:49:00,ths,11.10
2022-05-13T00:50:00,ths,10.16
2022-05-13T00:51:00,ths,7.98
2022-05-13T00:52:00,ths,9.05
2022-05-13T00:53:00,ths,7.25
2022-05-13T00:54:00,ths,9.14
2022-05-13T00:55:00,ths,5.06
2022-05-13T00:56:00,ths,6.95
2022-05-13T00:57:00,ths,6.54
2022-05-13T00:58:00,ths,5.37
2022-05-13T00:59:00,ths,6.67
2022-05-13T01:00:00,ths,6.68
2022-05-13T01:01:00,ths,6.62
2022-05-13T01:02:00,ths,6.62
2022-05-13T01:03:00,ths,4.76
2022-05-13T01:04:00,ths,7.81
2022-05-13T01:05:00,ths,12.47
2022-05-13T01:06:00,ths,12.49
2022-05-13T01:07:00,ths,10.52
2022-05-13T01:08:00,ths,12.55
2022-05-13T01:09:00,ths,12.39
2022-05-13T01:10:00,ths,10.60
2022-05-13T01:11:00,ths,12.79
2022-05-13T01:12:00,ths,12.71
2022-05-13T01:13:00,ths,10.78
2022-05-13T01:14:00,ths,10.02
2022-05-13T01:15:00,ths,9.93
2022-05-13T01:16:00,ths,10.00
2022-05-13T01:17:00,ths,7.98
2022-05-13T01:18:00,ths,8.01
2022-05-13T01:19:00,ths,5.72
2022-05-13T01:20:00,ths,4.98
2022-05-13T01:21:00,ths,5.06
2022-05-13T01:22:00,ths,5.12
2022-05-13T01:23:00,ths,4.93
2022-05-13T01:24:00,ths,4.87
2022-05-13T01:25:00,ths,4.79
2022-05-13T01:26:00,ths,4.81
2022-05-13T01:27:00,ths,4.86
2022-05-13T01:28:00,ths,8.29
2022-05-13T01:29:00,ths,11.09
2022-05-13T01:30:00,ths,11.08
2022-05-13T01:31:00,ths,11.08
2022-05-13T01:32:00,ths,11.02
2022-05-13T01:33:00,ths,10.98
2022-05-13T01:34:00,ths,8.76
2022-05-13T01:35:00,ths,7.84
2022-05-13T01:36:00,ths,8.06
2022-05-13T01:37:00,ths,5.87
2022-05-13T01:38:00,ths,7.05
2022-05-13T01:39:00,ths,6.68
2022-05-13T01:40:00,ths,6.74
2022-05-13T01:41:00,ths,6.80
2022-05-13T01:42:00,ths,6.76
2022-05-13T01:43:00,ths,4.75
2022-05-13T01:44:00,ths,4.74
2022-05-13T01:45:00,ths,4.85
2022-05-13T01:46:00,ths,7.97
2022-05-13T01:47:00,ths,7.96
2022-05-13T01:48:00,ths,7.92
2022-05-13T01:49:00,ths,8.12
2022-05-13T01:50:00,ths,8.07
2022-05-13T01:51:00,ths,8.08
2022-05-13T01:52:00,ths,5.79
2022-05-13T01:53:00,ths,4.99
2022-05-13T01:54:00,ths,5.14
2022-05-13T01:55:00,ths,5.06
2022-05-13T01:56:00,ths,5.06
2022-05-13T01:57:00,ths,5.11
2022-05-13T01:58:00,ths,7.64
2022-05-13T01:59:00,ths,10.25
2022-05-13T02:00:00,ths,10.32
2022-05-13T02:01:00,ths,10.17
2022-05-13T02:02:00,ths,10.18
2022-05-13T02:03:00,ths,11.39
2022-05-13T02:04:00,ths,10.61
2022-05-13T02:05:00,ths,10.60
2022-05-13T02:06:00,ths,10.73
2022-05-13T02:07:00,ths,8.53
2022-05-13T02:08:00,ths,7.49
2022-05-13T02:09:00,ths,7.69
2022-05-13T02:10:00,ths,10.98
2022-05-13T02:11:00,ths,10.98
2022-05-13T02:12:00,ths,10.96
2022-05-13T02:13:00,ths,10.96
2022-05-13T02:14:00,ths,11.01
2022-05-13T02:15:00,ths,8.34
2022-05-13T02:16:00,ths,7.21
2022-05-13T02:17:00,ths,7.34
2022-05-13T02:18:00,ths,7.35
2022-05-13T02:19:00,ths,7.02
2022-05-13T02:20:00,ths,7.06
2022-05-13T02:21:00,ths,7.04
2022-05-13T02:22:00,ths,6.92
2022-05-13T02:23:00,ths,7.02
2022-05-13T02:24:00,ths,6.94
2022-05-13T02:25:00,ths,6.97
2022-05-13T02:26:00,ths,7.41
2022-05-13T02:27:00,ths,7.17
2022-05-13T02:28:00,ths,7.02
2022-05-13T02:29:00,ths,6.99
2022-05-13T02:30:00,ths,6.99
2022-05-13T02:31:00,ths,6.99
2022-05-13T02:32:00,ths,6.91
2022-05-13T02:33:00,ths,6.91
2022-05-13T02:34:00,ths,7.08
2022-05-13T02:35:00,ths,7.03
2022-05-13T02:36:00,ths,7.67
2022-05-13T02:37:00,ths,7.01
2022-05-13T02:38:00,ths,7.59
2022-05-13T02:39:00,ths,7.31
2022-05-13T02:40:00,ths,7.00
2022-05-13T02:41:00,ths,6.96
2022-05-13T02:42:00,ths,7.16
2022-05-13T02:43:00,ths,7.14
2022-05-13T02:44:00,ths,6.97
2022-05-13T02:45:00,ths,7.10
2022-05-13T02:46:00,ths,7.12
2022-05-13T02:47:00,ths,7.09
2022-05-13T02:48:00,ths,7.16
2022-05-13T02:49:00,ths,5.20
2022-05-13T02:50:00,ths,6.67
2022-05-13T02:51:00,ths,6.87
2022-05-13T02:52:00,ths,6.87
2022-05-13T02:53:00,ths,6.82
2022-05-13T02:54:00,ths,6.83
2022-05-13T02:55:00,ths,6.62
2022-05-13T02:56:00,ths,6.66
2022-05-13T02:57:00,ths,4.82
2022-05-13T02:58:00,ths,4.80
2022-05-13T02:59:00,ths,4.75
2022-05-13T03:00:00,ths,7.34
2022-05-13T03:01:00,ths,7.60
2022-05-13T03:02:00,ths,7.74
2022-05-13T03:03:00,ths,7.63
2022-05-13T03:04:00,ths,7.66
2022-05-13T03:05:00,ths,7.58
2022-05-13T03:06:00,ths,7.91
2022-05-13T03:07:00,ths,7.88
2022-05-13T03:08:00,ths,7.83
2022-05-13T03:09:00,ths,5.81
2022-05-13T03:10:00,ths,5.15
2022-05-13T03:11:00,ths,5.08
2022-05-13T03:12:00,ths,5.08
2022-05-13T03:13:00,ths,5.06
2022-05-13T03:14:00,ths,4.92
2022-05-13T03:15:00,ths,8.24
2022-05-13T03:16:00,ths,8.23
2022-05-13T03:17:00,ths,8.54
2022-05-13T03:18:00,ths,8.22
2022-05-13T03:19:00,ths,8.26
2022-05-13T03:20:00,ths,8.44
2022-05-13T03:21:00,ths,8.42
2022-05-13T03:22:00,ths,5.00
2022-05-13T03:23:00,ths,4.79
2022-05-13T03:24:00,ths,4.80
2022-05-13T03:25:00,ths,9.64
2022-05-13T03:26:00,ths,9.76
2022-05-13T03:27:00,ths,9.94
2022-05-13T03:28:00,ths,10.38
2022-05-13T03:29:00,ths,9.90
2022-05-13T03:30:00,ths,9.97
2022-05-13T03:31:00,ths,9.85
2022-05-13T03:32:00,ths,11.86
2022-05-13T03:33:00,ths,9.43
2022-05-13T03:34:00,ths,6.61
2022-05-13T03:35:00,ths,6.56
2022-05-13T03:36:00,ths,6.59
2022-05-13T03:37:00,ths,4.63
2022-05-13T03:38:00,ths,4.62
2022-05-13T03:39:00,ths,4.58
2022-05-13T03:40:00,ths,4.57
2022-05-13T03:41:00,ths,4.57
2022-05-13T03:42:00,ths,4.57
2022-05-13T03:43:00,ths,4.45
2022-05-13T03:44:00,ths,7.11
2022-05-13T03:45:00,ths,7.11
2022-05-13T03:46:00,ths,7.11
2022-05-13T03:47:00,ths,7.17
2022-05-13T03:48:00,ths,7.16
2022-05-13T03:49:00,ths,7.15
2022-05-13T03:50:00,ths,7.37
2022-05-13T03:51:00,ths,7.35
2022-05-13T03:52:00,ths,7.28
2022-05-13T03:53:00,ths,7.34
2022-05-13T03:54:00,ths,4.72
2022-05-13T03:55:00,ths,4.71
2022-05-13T03:56:00,ths,4.61
2022-05-13T03:57:00,ths,4.58
2022-05-13T03:58:00,ths,4.64
2022-05-13T03:59:00,ths,4.64
2022-05-13T04:00:00,ths,4.62
2022-05-13T04:01:00,ths,4.62
2022-05-13T04:02:00,ths,4.63
2022-05-13T04:03:00,ths,4.69
2022-05-13T04:04:00,ths,7.41
2022-05-13T04:05:00,ths,7.36
2022-05-13T04:06:00,ths,7.44
2022-05-13T04:07:00,ths,7.43
2022-05-13T04:08:00,ths,7.51
2022-05-13T04:09:00,ths,7.48
2022-05-13T04:10:00,ths,7.23
2022-05-13T04:11:00,ths,7.14
2022-05-13T04:12:00,ths,7.17
2022-05-13T04:13:00,ths,7.07
2022-05-13T04:14:00,ths,7.07
2022-05-13T04:15:00,ths,5.04
2022-05-13T04:16:00,ths,4.35
2022-05-13T04:17:00,ths,4.35
2022-05-13T04:18:00,ths,4.37
2022-05-13T04:19:00,ths,4.39
2022-05-13T04:20:00,ths,4.39
2022-05-13T04:21:00,ths,4.44
2022-05-13T04:22:00,ths,4.46
2022-05-13T04:23:00,ths,4.59
2022-05-13T04:24:00,ths,4.56
2022-05-13T04:25:00,ths,4.60
2022-05-13T04:26:00,ths,4.61
2022-05-13T04:27:00,ths,4.60
2022-05-13T04:28:00,ths,4.60
2022-05-13T04:29:00,ths,4.57
2022-05-13T04:30:00,ths,4.54
2022-05-13T04:31:00,ths,4.59
2022-05-13T04:32:00,ths,7.20
2022-05-13T04:33:00,ths,8.73
2022-05-13T04:34:00,ths,7.46
2022-05-13T04:35:00,ths,7.44
2022-05-13T04:36:00,ths,9.27
2022-05-13T04:37:00,ths,9.36
2022-05-13T04:38:00,ths,9.25
2022-05-13T04:39:00,ths,9.09
2022-05-13T04:40:00,ths,7.12
2022-05-13T04:41:00,ths,4.55
2022-05-13T04:42:00,ths,4.49
2022-05-13T04:43:00,ths,4.51
2022-05-13T04:44:00,ths,4.39
2022-05-13T04:45:00,ths,4.38
2022-05-13T04:46:00,ths,4.34
2022-05-13T04:47:00,ths,4.36
2022-05-13T04:48:00,ths,4.46
2022-05-13T04:49:00,ths,4.58
2022-05-13T04:50:00,ths,4.57
2022-05-13T04:51:00,ths,4.59
2022-05-13T04:52:00,ths,4.57
2022-05-13T04:53:00,ths,4.62
2022-05-13T04:54:00,ths,4.56
2022-05-13T04:55:00,ths,4.56
2022-05-13T04:56:00,ths,4.65
2022-05-13T04:57:00,ths,4.60
2022-05-13T04:58:00,ths,7.03
2022-05-13T04:59:00,ths,7.05
2022-05-13T05:00:00,ths,7.03
2022-05-13T05:01:00,ths,6.98
2022-05-13T05:02:00,ths,6.98
2022-05-13T05:03:00,ths,7.18
2022-05-13T05:04:00,ths,7.17
2022-05-13T05:05:00,ths,7.10
2022-05-13T05:06:00,ths,7.30
2022-05-13T05:07:00,ths,7.12
2022-05-13T05:08:00,ths,7.25
2022-05-13T05:09:00,ths,7.20
2022-05-13T05:10:00,ths,6.96
2022-05-13T05:11:00,ths,4.28
2022-05-13T05:12:00,ths,4.35
2022-05-13T05:13:00,ths,4.34
2022-05-13T05:14:00,ths,4.33
2022-05-13T05:15:00,ths,4.32
2022-05-13T05:16:00,ths,4.28
2022-05-13T05:17:00,ths,4.23
2022-05-13T05:18:00,ths,4.22
2022-05-13T05:19:00,ths,4.23
2022-05-13T05:20:00,ths,4.26
2022-05-13T05:21:00,ths,4.26
2022-05-13T05:22:00,ths,4.28
2022-05-13T05:23:00,ths,4.26
2022-05-13T05:24:00,ths,4.26
2022-05-13T05:25:00,ths,4.25
2022-05-13T05:26:00,ths,4.26
2022-05-13T05:27:00,ths,4.29
2022-05-13T05:28:00,ths,4.29
2022-05-13T05:29:00,ths,4.35
2022-05-13T05:30:00,ths,4.35
2022-05-13T05:31:00,ths,4.29
2022-05-13T05:32:00,ths,4.26
2022-05-13T05:33:00,ths,4.48
2022-05-13T05:34:00,ths,4.46
2022-05-13T05:35:00,ths,4.41
2022-05-13T05:36:00,ths,4.35
2022-05-13T05:37:00,ths,6.97
2022-05-13T05:38:00,ths,6.98
2022-05-13T05:39:00,ths,7.23
2022-05-13T05:40:00,ths,7.22
2022-05-13T05:41:00,ths,7.28
2022-05-13T05:42:00,ths,7.14
2022-05-13T05:43:00,ths,7.13
2022-05-13T05:44:00,ths,7.19
2022-05-13T05:45:00,ths,4.62
2022-05-13T05:46:00,ths,4.59
2022-05-13T05:47:00,ths,4.53
2022-05-13T05:48:00,ths,4.54
2022-05-13T05:49:00,ths,4.45
2022-05-13T05:50:00,ths,4.34
2022-05-13T05:51:00,ths,7.65
2022-05-13T05:52:00,ths,7.72
2022-05-13T05:53:00,ths,7.68
2022-05-13T05:54:00,ths,7.69
2022-05-13T05:55:00,ths,7.73
2022-05-13T05:56:00,ths,7.74
2022-05-13T05:57:00,ths,4.60
2022-05-13T05:58:00,ths,4.39
2022-05-13T05:59:00,ths,4.33
2022-05-13T06:00:00,ths,4.46
2022-05-13T06:01:00,ths,4.47
2022-05-13T06:02:00,ths,4.54
2022-05-13T06:03:00,ths,4.52
2022-05-13T06:04:00,ths,4.59
2022-05-13T06:05:00,ths,4.58
2022-05-13T06:06:00,ths,6.26
2022-05-13T06:07:00,ths,6.25
2022-05-13T06:08:00,ths,6.31
2022-05-13T06:09:00,ths,8.95
2022-05-13T06:10:00,ths,8.91
2022-05-13T06:11:00,ths,7.04
2022-05-13T06:12:00,ths,7.20
2022-05-13T06:13:00,ths,7.21
2022-05-13T06:14:00,ths,7.08
2022-05-13T06:15:00,ths,7.06
2022-05-13T06:16:00,ths,7.13
2022-05-13T06:17:00,ths,4.51
2022-05-13T06:18:00,ths,4.56
2022-05-13T06:19:00,ths,4.55
2022-05-13T06:20:00,ths,5.81
2022-05-13T06:21:00,ths,7.43
2022-05-13T06:22:00,ths,7.44
2022-05-13T06:23:00,ths,7.37
2022-05-13T06:24:00,ths,7.49
2022-05-13T06:25:00,ths,5.38
2022-05-13T06:26:00,ths,4.42
2022-05-13T06:27:00,ths,4.42
2022-05-13T06:28:00,ths,4.41
2022-05-13T06:29:00,ths,4.45
2022-05-13T06:30:00,ths,4.44
2022-05-13T06:31:00,ths,4.50
2022-05-13T06:32:00,ths,4.61
2022-05-13T06:33:00,ths,4.56
2022-05-13T06:34:00,ths,4.49
2022-05-13T06:35:00,ths,4.44
2022-05-13T06:36:00,ths,4.40
2022-05-13T06:37:00,ths,4.35
2022-05-13T06:38:00,ths,4.34
2022-05-13T06:39:00,ths,9.43
2022-05-13T06:40:00,ths,9.96
2022-05-13T06:41:00,ths,9.37
2022-05-13T06:42:00,ths,9.70
2022-05-13T06:43:00,ths,9.64
2022-05-13T06:44:00,ths,10.87
2022-05-13T06:45:00,ths,9.94
2022-05-13T06:46:00,ths,9.99
2022-05-13T06:47:00,ths,7.45
2022-05-13T06:48:00,ths,7.63
2022-05-13T06:49:00,ths,5.48
2022-05-13T06:50:00,ths,4.59
2022-05-13T06:51:00,ths,4.58
2022-05-13T06:52:00,ths,4.56
2022-05-13T06:53:00,ths,4.57
2022-05-13T06:54:00,ths,4.54
2022-05-13T06:55:00,ths,4.50
2022-05-13T06:56:00,ths,4.52
2022-05-13T06:57:00,ths,4.53
2022-05-13T06:58:00,ths,4.42
2022-05-13T06:59:00,ths,4.30
2022-05-13T07:00:00,ths,4.30
2022-05-13T07:01:00,ths,4.31
2022-05-13T07:02:00,ths,4.30
2022-05-13T07:03:00,ths,4.41
2022-05-13T07:04:00,ths,4.26
2022-05-13T07:05:00,ths,4.18
2022-05-13T07:06:00,ths,4.21
2022-05-13T07:07:00,ths,4.17
2022-05-13T07:08:00,ths,6.79
2022-05-13T07:09:00,ths,6.88
2022-05-13T07:10:00,ths,9.73
2022-05-13T07:11:00,ths,9.96
2022-05-13T07:12:00,ths,9.75
2022-05-13T07:13:00,ths,13.31
2022-05-13T07:14:00,ths,13.41
2022-05-13T07:15:00,ths,9.15
2022-05-13T07:16:00,ths,7.74
2022-05-13T07:17:00,ths,7.68
2022-05-13T07:18:00,ths,5.19
2022-05-13T07:19:00,ths,4.33
2022-05-13T07:20:00,ths,4.31
2022-05-13T07:21:00,ths,4.41
2022-05-13T07:22:00,ths,4.59
2022-05-13T07:23:00,ths,4.52
2022-05-13T07:24:00,ths,4.38
2022-05-13T07:25:00,ths,4.52
2022-05-13T07:26:00,ths,4.46
2022-05-13T07:27:00,ths,4.40
2022-05-13T07:28:00,ths,4.48
2022-05-13T07:29:00,ths,4.65
2022-05-13T07:30:00,ths,4.53
2022-05-13T07:31:00,ths,4.52
2022-05-13T07:32:00,ths,4.50
2022-05-13T07:33:00,ths,4.49
2022-05-13T07:34:00,ths,4.66
2022-05-13T07:35:00,ths,4.65
2022-05-13T07:36:00,ths,7.56
2022-05-13T07:37:00,ths,10.29
2022-05-13T07:38:00,ths,10.28
2022-05-13T07:39:00,ths,12.22
2022-05-13T07:40:00,ths,10.18
2022-05-13T07:41:00,ths,9.36
2022-05-13T07:42:00,ths,9.24
2022-05-13T07:43:00,ths,9.13
2022-05-13T07:44:00,ths,7.16
2022-05-13T07:45:00,ths,4.49
2022-05-13T07:46:00,ths,4.62
2022-05-13T07:47:00,ths,4.62
2022-05-13T07:48:00,ths,4.56
2022-05-13T07:49:00,ths,4.55
2022-05-13T07:50:00,ths,4.53
2022-05-13T07:51:00,ths,4.81
2022-05-13T07:52:00,ths,4.77
2022-05-13T07:53:00,ths,4.74
2022-05-13T07:54:00,ths,4.77
2022-05-13T07:55:00,ths,4.74
2022-05-13T07:56:00,ths,4.79
2022-05-13T07:57:00,ths,4.77
2022-05-13T07:58:00,ths,7.24
2022-05-13T07:59:00,ths,7.36
2022-05-13T08:00:00,ths,7.02
2022-05-13T08:01:00,ths,7.12
2022-05-13T08:02:00,ths,10.44
2022-05-13T08:03:00,ths,10.44
2022-05-13T08:04:00,ths,7.85
2022-05-13T08:05:00,ths,7.83
2022-05-13T08:06:00,ths,8.05
2022-05-13T08:07:00,ths,8.13
2022-05-13T08:08:00,ths,5.83
2022-05-13T08:09:00,ths,4.49
2022-05-13T08:10:00,ths,4.54
2022-05-13T08:11:00,ths,4.62
2022-05-13T08:12:00,ths,4.54
2022-05-13T08:13:00,ths,4.51
2022-05-13T08:14:00,ths,4.46
2022-05-13T08:15:00,ths,4.46
2022-05-13T08:16:00,ths,4.45
2022-05-13T08:17:00,ths,4.46
2022-05-13T08:18:00,ths,4.57
2022-05-13T08:19:00,ths,4.58
2022-05-13T08:20:00,ths,4.78
2022-05-13T08:21:00,ths,4.71
2022-05-13T08:22:00,ths,4.65
2022-05-13T08:23:00,ths,4.58
2022-05-13T08:24:00,ths,4.59
2022-05-13T08:25:00,ths,4.53
2022-05-13T08:26:00,ths,4.55
2022-05-13T08:27:00,ths,4.55
2022-05-13T08:28:00,ths,4.77
2022-05-13T08:29:00,ths,4.56
2022-05-13T08:30:00,ths,4.46
2022-05-13T08:31:00,ths,10.89
2022-05-13T08:32:00,ths,11.06
2022-05-13T08:33:00,ths,11.03
2022-05-13T08:34:00,ths,11.10
2022-05-13T08:35:00,ths,11.13
2022-05-13T08:36:00,ths,8.79
2022-05-13T08:37:00,ths,5.42
2022-05-13T08:38:00,ths,4.48
2022-05-13T08:39:00,ths,4.65
2022-05-13T08:40:00,ths,4.67
2022-05-13T08:41:00,ths,4.71
2022-05-13T08:42:00,ths,4.57
2022-05-13T08:43:00,ths,4.54
2022-05-13T08:44:00,ths,6.47
2022-05-13T08:45:00,ths,6.62
2022-05-13T08:46:00,ths,6.54
2022-05-13T08:47:00,ths,6.59
2022-05-13T08:48:00,ths,6.49
2022-05-13T08:49:00,ths,4.42
2022-05-13T08:50:00,ths,4.54
2022-05-13T08:51:00,ths,4.57
2022-05-13T08:52:00,ths,4.50
2022-05-13T08:53:00,ths,4.55
2022-05-13T08:54:00,ths,4.57
2022-05-13T08:55:00,ths,4.56
2022-05-13T08:56:00,ths,4.48
2022-05-13T08:57:00,ths,4.61
2022-05-13T08:58:00,ths,4.65
2022-05-13T08:59:00,ths,4.84
2022-05-13T09:00:00,ths,7.58
2022-05-13T09:01:00,ths,7.45
2022-05-13T09:02:00,ths,8.65
2022-05-13T09:03:00,ths,10.55
2022-05-13T09:04:00,ths,10.61
2022-05-13T09:05:00,ths,10.61
2022-05-13T09:06:00,ths,11.54
2022-05-13T09:07:00,ths,14.42
2022-05-13T09:08:00,ths,12.07
2022-05-13T09:09:00,ths,11.31
2022-05-13T09:10:00,ths,11.46
2022-05-13T09:11:00,ths,11.10
2022-05-13T09:12:00,ths,8.46
2022-05-13T09:13:00,ths,7.70
2022-05-13T09:14:00,ths,7.64
2022-05-13T09:15:00,ths,5.42
2022-05-13T09:16:00,ths,4.72
2022-05-13T09:17:00,ths,4.79
2022-05-13T09:18:00,ths,4.68
2022-05-13T09:19:00,ths,4.65
2022-05-13T09:20:00,ths,4.74
2022-05-13T09:21:00,ths,4.59
2022-05-13T09:22:00,ths,4.62
2022-05-13T09:23:00,ths,4.60
2022-05-13T09:24:00,ths,5.06
2022-05-13T09:25:00,ths,4.85
2022-05-13T09:26:00,ths,4.77
2022-05-13T09:27:00,ths,7.80
2022-05-13T09:28:00,ths,7.81
2022-05-13T09:29:00,ths,7.47
2022-05-13T09:30:00,ths,7.49
2022-05-13T09:31:00,ths,7.48
2022-05-13T09:32:00,ths,7.51
2022-05-13T09:33:00,ths,7.61
2022-05-13T09:34:00,ths,9.32
2022-05-13T09:35:00,ths,10.09
2022-05-13T09:36:00,ths,9.44
2022-05-13T09:37:00,ths,15.27
2022-05-13T09:38:00,ths,13.19
2022-05-13T09:39:00,ths,13.26
2022-05-13T09:40:00,ths,12.64
2022-05-13T09:41:00,ths,10.91
2022-05-13T09:42:00,ths,10.93
2022-05-13T09:43:00,ths,8.89
2022-05-13T09:44:00,ths,5.44
2022-05-13T09:45:00,ths,4.63
2022-05-13T09:46:00,ths,4.70
2022-05-13T09:47:00,ths,4.57
2022-05-13T09:48:00,ths,4.74
2022-05-13T09:49:00,ths,7.80
2022-05-13T09:50:00,ths,7.85
2022-05-13T09:51:00,ths,7.67
2022-05-13T09:52:00,ths,7.78
2022-05-13T09:53:00,ths,7.87
2022-05-13T09:54:00,ths,8.07
2022-05-13T09:55:00,ths,12.33
2022-05-13T09:56:00,ths,9.80
2022-05-13T09:57:00,ths,8.91
2022-05-13T09:58:00,ths,11.39
2022-05-13T09:59:00,ths,11.53
2022-05-13T10:00:00,ths,11.66
2022-05-13T10:01:00,ths,14.48
2022-05-13T10:02:00,ths,14.43
2022-05-13T10:03:00,ths,14.62
2022-05-13T10:04:00,ths,11.82
2022-05-13T10:05:00,ths,12.13
2022-05-13T10:06:00,ths,13.26
2022-05-13T10:07:00,ths,15.72
2022-05-13T10:08:00,ths,15.33
2022-05-13T10:09:00,ths,13.28
2022-05-13T10:10:00,ths,12.50
2022-05-13T10:11:00,ths,12.49
2022-05-13T10:12:00,ths,16.21
2022-05-13T10:13:00,ths,16.23
2022-05-13T10:14:00,ths,15.80
2022-05-13T10:15:00,ths,15.97
2022-05-13T10:16:00,ths,16.15
2022-05-13T10:17:00,ths,13.45
2022-05-13T10:18:00,ths,9.56
2022-05-13T10:19:00,ths,8.95
2022-05-13T10:20:00,ths,8.95
2022-05-13T10:21:00,ths,9.06
2022-05-13T10:22:00,ths,9.12
2022-05-13T10:23:00,ths,11.17
2022-05-13T10:24:00,ths,11.01
2022-05-13T10:25:00,ths,14.01
2022-05-13T10:26:00,ths,14.08
2022-05-13T10:27:00,ths,14.13
2022-05-13T10:28:00,ths,15.34
2022-05-13T10:29:00,ths,19.81
2022-05-13T10:30:00,ths,19.96
2022-05-13T10:31:00,ths,19.78
2022-05-13T10:32:00,ths,19.78
2022-05-13T10:33:00,ths,19.60
2022-05-13T10:34:00,ths,16.68
2022-05-13T10:35:00,ths,16.66
2022-05-13T10:36:00,ths,14.28
2022-05-13T10:37:00,ths,13.44
2022-05-13T10:38:00,ths,17.29
2022-05-13T10:39:00,ths,17.25
2022-05-13T10:40:00,ths,13.12
2022-05-13T10:41:00,ths,13.15
2022-05-13T10:42:00,ths,13.12
2022-05-13T10:43:00,ths,10.22
2022-05-13T10:44:00,ths,9.24
2022-05-13T10:45:00,ths,9.14
2022-05-13T10:46:00,ths,19.40
2022-05-13T10:47:00,ths,19.56
2022-05-13T10:48:00,ths,19.55
2022-05-13T10:49:00,ths,19.42
2022-05-13T10:50:00,ths,15.27
2022-05-13T10:51:00,ths,15.41
2022-05-13T10:52:00,ths,15.37
2022-05-13T10:53:00,ths,15.44
2022-05-13T10:54:00,ths,12.96
2022-05-13T10:55:00,ths,11.92
2022-05-13T10:56:00,ths,8.96
2022-05-13T10:57:00,ths,8.92
2022-05-13T10:58:00,ths,8.88
2022-05-13T10:59:00,ths,8.94
2022-05-13T11:00:00,ths,11.70
2022-05-13T11:01:00,ths,11.77
2022-05-13T11:02:00,ths,11.79
2022-05-13T11:03:00,ths,11.75
2022-05-13T11:04:00,ths,11.66
2022-05-13T11:05:00,ths,14.58
2022-05-13T11:06:00,ths,14.51
2022-05-13T11:07:00,ths,17.86
2022-05-13T11:08:00,ths,21.76
2022-05-13T11:09:00,ths,21.75
2022-05-13T11:10:00,ths,21.67
2022-05-13T11:11:00,ths,21.67
2022-05-13T11:12:00,ths,16.97
2022-05-13T11:13:00,ths,15.94
2022-05-13T11:14:00,ths,13.04
2022-05-13T11:15:00,ths,12.28
2022-05-13T11:16:00,ths,12.49
2022-05-13T11:17:00,ths,12.13
2022-05-13T11:18:00,ths,10.03
2022-05-13T11:19:00,ths,9.71
2022-05-13T11:20:00,ths,16.10
2022-05-13T11:21:00,ths,15.88
2022-05-13T11:22:00,ths,15.98
2022-05-13T11:23:00,ths,15.96
2022-05-13T11:24:00,ths,16.40
2022-05-13T11:25:00,ths,15.68
2022-05-13T11:26:00,ths,15.84
2022-05-13T11:27:00,ths,15.82
2022-05-13T11:28:00,ths,18.90
2022-05-13T11:29:00,ths,19.17
2022-05-13T11:30:00,ths,18.66
2022-05-13T11:31:00,ths,18.41
2022-05-13T11:32:00,ths,22.46
2022-05-13T11:33:00,ths,19.52
2022-05-13T11:34:00,ths,18.63
2022-05-13T11:35:00,ths,18.50
2022-05-13T11:36:00,ths,18.82
2022-05-13T11:37:00,ths,18.66
2022-05-13T11:38:00,ths,18.51
2022-05-13T11:39:00,ths,15.54
2022-05-13T11:40:00,ths,14.51
2022-05-13T11:41:00,ths,12.02
2022-05-13T11:42:00,ths,11.40
2022-05-13T11:43:00,ths,11.61
2022-05-13T11:44:00,ths,11.88
2022-05-13T11:45:00,ths,11.59
2022-05-13T11:46:00,ths,12.52
2022-05-13T11:47:00,ths,14.82
2022-05-13T11:48:00,ths,23.17
2022-05-13T11:49:00,ths,22.32
2022-05-13T11:50:00,ths,22.09
2022-05-13T11:51:00,ths,25.09
2022-05-13T11:52:00,ths,25.25
2022-05-13T11:53:00,ths,20.22
2022-05-13T11:54:00,ths,19.63
2022-05-13T11:55:00,ths,23.44
2022-05-13T11:56:00,ths,23.37
2022-05-13T11:57:00,ths,23.36
2022-05-13T11:58:00,ths,23.35
2022-05-13T11:59:00,ths,23.46
2022-05-13T12:00:00,ths,23.35
2022-05-13T12:01:00,ths,27.08
2022-05-13T12:02:00,ths,27.23
2022-05-13T12:03:00,ths,27.30
2022-05-13T12:04:00,ths,28.13
2022-05-13T12:05:00,ths,24.78
2022-05-13T12:06:00,ths,23.42
2022-05-13T12:07:00,ths,23.35
2022-05-13T12:08:00,ths,20.20
2022-05-13T12:09:00,ths,16.39
2022-05-13T12:10:00,ths,19.90
2022-05-13T12:11:00,ths,19.98
2022-05-13T12:12:00,ths,20.00
2022-05-13T12:13:00,ths,22.94
2022-05-13T12:14:00,ths,27.02
2022-05-13T12:15:00,ths,27.15
2022-05-13T12:16:00,ths,24.49
2022-05-13T12:17:00,ths,23.68
2022-05-13T12:18:00,ths,23.72
2022-05-13T12:19:00,ths,23.53
2022-05-13T12:20:00,ths,23.38
2022-05-13T12:21:00,ths,23.39
2022-05-13T12:22:00,ths,21.62
2022-05-13T12:23:00,ths,19.43
2022-05-13T12:24:00,ths,19.41
2022-05-13T12:25:00,ths,21.13
2022-05-13T12:26:00,ths,21.77
2022-05-13T12:27:00,ths,19.60
2022-05-13T12:28:00,ths,18.66
2022-05-13T12:29:00,ths,18.65
2022-05-13T12:30:00,ths,22.10
2022-05-13T12:31:00,ths,23.80
2022-05-13T12:32:00,ths,27.87
2022-05-13T12:33:00,ths,27.68
2022-05-13T12:34:00,ths,27.73
2022-05-13T12:35:00,ths,26.54
2022-05-13T12:36:00,ths,26.82
2022-05-13T12:37:00,ths,23.95
2022-05-13T12:38:00,ths,19.45
2022-05-13T12:39:00,ths,23.59
2022-05-13T12:40:00,ths,21.61
2022-05-13T12:41:00,ths,19.36
2022-05-13T12:42:00,ths,19.38
2022-05-13T12:43:00,ths,15.32
2022-05-13T12:44:00,ths,11.35
2022-05-13T12:45:00,ths,11.20
2022-05-13T12:46:00,ths,11.38
2022-05-13T12:47:00,ths,11.48
2022-05-13T12:48:00,ths,10.77
2022-05-13T12:49:00,ths,11.93
2022-05-13T12:50:00,ths,11.06
2022-05-13T12:51:00,ths,15.32
2022-05-13T12:52:00,ths,15.08
2022-05-13T12:53:00,ths,15.12
2022-05-13T12:54:00,ths,15.24
2022-05-13T12:55:00,ths,15.20
2022-05-13T12:56:00,ths,19.25
2022-05-13T12:57:00,ths,13.34
2022-05-13T12:58:00,ths,18.06
2022-05-13T12:59:00,ths,17.89
2022-05-13T13:00:00,ths,17.74
2022-05-13T13:01:00,ths,17.87
2022-05-13T13:02:00,ths,17.77
2022-05-13T13:03:00,ths,14.08
2022-05-13T13:04:00,ths,13.26
2022-05-13T13:05:00,ths,13.35
2022-05-13T13:06:00,ths,13.54
2022-05-13T13:07:00,ths,13.54
2022-05-13T13:08:00,ths,16.87
2022-05-13T13:09:00,ths,17.20
2022-05-13T13:10:00,ths,14.70
2022-05-13T13:11:00,ths,12.26
2022-05-13T13:12:00,ths,13.27
2022-05-13T13:13:00,ths,12.43
2022-05-13T13:14:00,ths,12.28
2022-05-13T13:15:00,ths,12.23
2022-05-13T13:16:00,ths,15.72
2022-05-13T13:17:00,ths,17.14
2022-05-13T13:18:00,ths,15.98
2022-05-13T13:19:00,ths,15.88
2022-05-13T13:20:00,ths,15.08
2022-05-13T13:21:00,ths,15.05
2022-05-13T13:22:00,ths,14.89
2022-05-13T13:23:00,ths,11.97
2022-05-13T13:24:00,ths,10.77
2022-05-13T13:25:00,ths,10.90
2022-05-13T13:26:00,ths,11.01
2022-05-13T13:27:00,ths,12.17
2022-05-13T13:28:00,ths,14.38
2022-05-13T13:29:00,ths,14.49
2022-05-13T13:30:00,ths,14.87
2022-05-13T13:31:00,ths,14.70
2022-05-13T13:32:00,ths,14.68
2022-05-13T13:33:00,ths,18.97
2022-05-13T13:34:00,ths,18.84
2022-05-13T13:35:00,ths,18.70